Regional Weather Roundup
Issued by NWS

Home | Current Version | Previous Version | Text Only | Print | Product List | Glossary On
Versions: 1 2 3 4 5 6 7 8 9 10 11 12 13 14 15 16 17 18 19 20 21 22 23 24 25 26 27 28 29 30 31 32 33 34 35 36 37 38 39 40 41 42 43 44 45 46 47 48 49 50
000
ASUS44 KLUB 261610
RWRTX
WEST TEXAS WEATHER ROUNDUP
NATIONAL WEATHER SERVICE LUBBOCK TX
1100 AM CDT THU MAY 26 2016

NOTE: "FAIR" INDICATES FEW OR NO CLOUDS BELOW 12,000 FEET WITH NO
SIGNIFICANT WEATHER AND/OR OBSTRUCTIONS TO VISIBILITY.

TXZ004-006>008-010-012-014-016-OKZ002-261700-
TEXAS PANHANDLE/OKLAHOMA PANHANDLE

CITY           SKY/WX    TMP DP  RH WIND       PRES   REMARKS
AMARILLO       SUNNY     80  44  27 SW14      29.84F
BORGER         SUNNY     83  51  33 SW9       29.80F
CANADIAN       SUNNY     80  69  68 S16G22    29.79F
DALHART        SUNNY     75  32  20 SW14      29.84F
DUMAS          MOSUNNY   77  36  22 W5        29.84F
GUYMON         CLOUDY    74  41  30 CALM      29.78F
HEREFORD       SUNNY     82  27  13 W16G23    29.87S
PAMPA          SUNNY     79  66  64 S14       29.83F
PERRYTON       SUNNY     80  63  56 S21       29.80F
$$

TXZ026-029-035-045-048-261700-
SOUTHERN PANHANDLE/SOUTH PLAINS/ROLLING PLAINS

CITY           SKY/WX    TMP DP  RH WIND       PRES   REMARKS
CHILDRESS      MOSUNNY   88  60  38 S24G30    29.80F HAZE
SEMINOLE       SUNNY     85  32  14 W17       29.90F
LUBBOCK        MOSUNNY   82  52  35 SW13      29.86F
PLAINVIEW      SUNNY     82  53  37 W15       29.85F
SNYDER           N/A     80  68  67 S21G26    29.87F
$$

TXZ052-054-060>062-072-078-127-140-154-169-261700-
PERMIAN BASIN/CONCHO VALLEY/BIG COUNTRY/EDWARDS PLATEAU

CITY           SKY/WX    TMP DP  RH WIND       PRES   REMARKS
ABILENE        CLOUDY    78  71  79 S24G33    29.88R
BIG SPRING     SUNNY     80  59  48 S15G21    29.89F
BROWNWOOD      CLOUDY    77  72  83 SE13      29.90F
JUNCTION       MOSUNNY   78  70  76 S21G31    29.90F
MIDLAND        SUNNY     93  30  10 SW20G25   29.87F
ODESSA         SUNNY     91  29  11 W17G23    29.89S
SAN ANGELO     MOSUNNY   81  70  69 S16       29.88F
SONORA         CLOUDY    81  68  65 S17       29.96F
SWEETWATER     MOSUNNY   80  68  66 S24G30    29.90F
WINK           SUNNY     88  29  12 MISG      29.87F
$$

TXZ055-058-074-075-080-082-261700-
FAR WEST/SOUTHWEST MOUNTAINS/TRANS PECOS

CITY           SKY/WX    TMP DP  RH WIND       PRES   REMARKS
ALPINE         SUNNY     82  45  26 SW17G26   30.05F
DRYDEN           N/A     87  63  44 E5        29.88F
EL PASO        SUNNY     76  31  19 W17G26    29.97F
FORT STOCKTON  SUNNY     90  45  21 SW15      29.90F
MARFA          SUNNY     81  43  26 SW29G36   30.03F
PECOS          SUNNY     84  42  23 CALM      29.88F
PRESIDIO       FAIR      88  46  23 SW15      29.93F
$$

TXZ014-016-019-021>030-083-261700
TEXAS TECH WEST TEXAS MESONET/TEXAS PANHANDLE/NORTHERN SOUTH PLAINS

CITY           SKY/WX    TMP DP  RH WIND       PRES   REMARKS
ABERNATHY 5ENE   N/A     83  52  33 SW14      29.89S
AMARILLO 9NNE    N/A     82  38  20 SW10      29.82F
AMARILLO 7SSE    N/A     83  37  19 W15       29.86F
AMHERST 1NE      N/A     83  28  13 W18G25    29.88F
BOOTLEG 11WNW    N/A     80  24  13 SW21G26   29.92S
CANADIAN 6E      N/A     81  67  61 S17       29.78F
CAPROCK CYN SP   N/A     82  62  50 S17       29.84S
CHILDRESS 2NNE   N/A     87  59  39 S21G28    29.82F
CLARENDON 2WSW   N/A     79  66  64 S16G23    29.84F
CLAUDE 12SW      N/A     82  51  34 SW8       29.85F
DIMMITT 2NE      N/A     83  27  13 SW16G23   29.88F
FLOYDADA 2NNE    N/A     83  55  37 SW13G18   29.86F
FRIONA 2NE       N/A     80  27  14 W20       29.89F
GOODLETT 3W      N/A     90  57  32 S15       29.80S
HART 3N          N/A     81  39  22 SW13      29.88F
HEREFORD 2NW     N/A     84  24  11 W17       29.89F
MCLEAN 1E        N/A     80  65  59 S18G24    29.84R
MEMPHIS 1NE      N/A     84  64  50 S16G25    29.82F
MULESHOE 2SSW    N/A     82  27  13 W17       29.89F
OLTON 6S         N/A     80  44  27 W10       29.88F
PALO DURO SP     N/A     85  41  21 W13       29.86F
PAMPA 2E         N/A     79  64  61 S18       29.84F
PLAINVIEW 1S     N/A     81  51  34 W10       29.87S
SILVERTON 7ESE   N/A     83  57  41 SW10      29.84S
TULIA 2ENE       N/A     82  49  32 W15       29.87F
TURKEY 2WSW      N/A     82  65  55 S15       29.84S
UMBARGER 3NNE    N/A     83  31  15 W18       29.87S
$$

TXZ033>036-039>041-045>048-261700
TEXAS TECH WEST TEXAS MESONET/SOUTH PLAINS

CITY           SKY/WX    TMP DP  RH WIND       PRES   REMARKS
AIKEN 3WSW       N/A     83  56  39 SW14      29.88F
ANDREWS 2NE      N/A     85  45  24 SW12      29.91F
ANTON 6SSW       N/A     84  39  20 W16       29.88S
BROWNFIELD 2S    N/A     86  29  12 W14G20    29.89S
DENVR CTY 7WNW   N/A     84  24  11 SW17G26   29.91F
GAIL 2ESE        N/A     84  64  50 S9        29.86F
LAMESA 2SE       N/A     87  42  21 W14       29.89S
LEVELLAND 4S     N/A     85  29  13 SW18G24   29.89F
LUBBOCK 3WNW     N/A     83  50  31 W8        29.88F
MORTON 1ENE      N/A     85  26  11 W20G25    29.89F
ODONNELL 1N      N/A     86  43  22 W13       29.88F
PLAINS 3N        N/A     84  28  13 W18G28    29.91F
RALLS 1SE        N/A     81  62  51 S15G22    29.89S
REESE CENTER     N/A     83  38  20 W14       29.88F
SEAGRAVES 1SW    N/A     86  27  12 W18       29.89F
SEMINOLE 2NNE    N/A     85  28  12 W14       29.89F
SLATON 2NE       N/A     84  47  27 SW16      29.88S
SNYDER 3E        N/A     81  67  63 S20G26    29.87F
SUNDOWN 8SW      N/A     84  27  12 W17G24    29.90F
TAHOKA 3NNE      N/A     84  47  27 W10       29.88F
WOLFFORTH 6SSW   N/A     86  29  12 SW18G24   29.88F
$$

TXZ031-032-036>038-042>044-261700-
TEXAS TECH WEST TEXAS MESONET/ROLLING PLAINS

CITY           SKY/WX    TMP DP  RH WIND       PRES   REMARKS
ASPERMONT 3NE    N/A     81  68  65 SE13G20   29.85F
FLUVANNA 3WNW    N/A     81  64  56 S17G24    29.88F
GRAHAM 5SSW      N/A     80  64  58 S10       29.88F
GUTHRIE 10WSW    N/A     84  62  47 S22G28    29.83F
HASKELL 1NW      N/A     78  65  64 SE14      29.86S
JAYTON 1SSE      N/A     83  66  56 S17G23    29.84F
KNOX CITY 3NW    N/A     82  63  52 SE18G28   29.83S
LK A HENRY 1NW   N/A     82  64  54 S16       29.86S
NORTHFIELD 1S    N/A     86  65  49 S20G26    29.82S
ODELL 4ENE       N/A     86  69  55 SE17      29.81F
PADUCAH 10SW     N/A     85  61  44 S24G35    29.83S
POST 1NE         N/A     81  64  57 S13G18    29.86F
RRING SPRGS 3N   N/A     81  66  59 S16G23    29.85F
SEYMOUR 3NW      N/A     78  67  70 SE15      29.83R
SPUR 1W          N/A     82  63  51 S16       29.85F
WEINERT 2NNE     N/A     79  67  67 S21       29.86R
WHITE RVR 6NE    N/A     80  62  54 S15       29.86F
$$

TXZ052-054-060>062-072-078-127-140-154-169-261700-
TEXAS TECH WEST TEXAS MESONET/PERMIAN BASIN/
CONCHO VALLEY/BIG COUNTRY/EDWARDS PLATEAU

CITY           SKY/WX    TMP DP  RH WIND       PRES   REMARKS
COYANOSA 2N      N/A     92  39  16 W13       29.88F
JUNCTION 1SSW    N/A     81  72  75 SE20G26   29.90F
MERTZON 3NNE     N/A     82  68  63 S17       29.90F
SAN ANGELO 7NW   N/A     82  69  64 S14       29.89F
STRLNG CT 4WSW   N/A     84  65  51 S15G21    29.89F
ST LAWRNCE 5SW   N/A     87  56  34 S17       29.89F
SWEETWATR 11SW   N/A     79  69  69 S18G24    29.90F
WALL 1E          N/A     80  67  64 S17G24    29.90F
$$

TXZ055-058-074-075-080-082-261700-
TEXAS TECH WEST TEXAS MESONET/FAR WEST/SOUTHWEST MOUNTAINS/TRANS PECOS

CITY           SKY/WX    TMP DP  RH WIND       PRES   REMARKS
PRSMN GAP BBNP   N/A     90  46  21 SW20      29.92F
GUADLPE MTN NP   N/A     72  24  17 W18G26    30.03F
$$



USA.gov is the U.S. government's official web portal to all federal, state and local government web resources and services.